loading
|

DELTA 1 DEB, 2775

Orbit data source: Space-Track

DELTA 1 DEB, 2775 is space debris in LEO originally from a launch on Sun, 02 Oct 1966 UTC launched from the Air Force Western Test Range (AFWTR). Debris objects in space refer to the collection of defunct objects orbiting the Earth. Examples of debris include non-operational satellites, rocket bodies, and fragments generated from explosions, collisions, or faulty payload assembly.

Loading next visibility...
Next conjunction unknown
Loading greatness...
DELTA 1 DEB details
Identifier
2775, 1966-087D
Orbit
LEO
Last TLE update3 days ago
Origin
Flag of USGSFC (US)
ManufacturerUnknown
MissionSpacecraft
Bus & MotorUnknown bus, Unknown motor
Mass1 kg wet, 1 kg dry
Launch date (UTC)
1966-10-02 (58 years ago)
Launch vehicleUnknown
Launch site
Air Force Western Test Range (AFWTR)
Object type
Payload
Rocket body
Debris
Shape & HBRCyl + 1 Cable, 3.5 m
Radar Cross Section3.500 m², Small (<0.1 m²)

Expand to show TLE details & history

TLE from 3 days ago
0 DELTA 1 DEB
1 02775U 66087D   24283.73589718 -.00000011  00000-0  15263-3 0  9998
2 02775 100.9492 305.5788 0124394 314.7718 107.1664 12.71667496692100
Epoch: 2024-10-09T17:39Z
Definitive object data (Epoch: 2024-10-09T17:39:41.516Z)
Latitude61.37918°
Longitude1.16813°
Altitude1,415.06 km
Speed7.145 km/s
True Right ascension18h 59m 41s
True Declination61° 14' 48"
Sunlit
Object was in daylight at TLE epoch
Predictive object data (real-time)
Latitude-28.09291°
Longitude30.63304°
Altitude1,296.469 km
Speed7.249 km/s
Apparent Right ascension22h 43m 38s
Apparent Declination-37° 42' 53"
Sunlit
Object is in daylight
Predictive observer data (real-time)
Local Sidereal Time13:16:11
Azimuth98.148° ESE
Elevation-60.429°
Doppler factor1
Orbital elements
Apogee1,469.042 km
Perigee1,276.212 km
Semi-major axis7,750.764 km
Eccentricity0.0124394
Inclination100.9492°
RAAN305.5788°
Arg. of periapsis314.7718°
True anomaly108.522°
Mean anomaly107.1664°
Eccentric anomaly107.84484°
Mean motion3.18073 °/min
BSTAR0.00015263
Period113.18 mins
No data available
No data available

DELTA 1 DEB Visibility forecast

Observer location: 39.9160978°, -105.1181434

Span
Click to sort rows by Start time (UTC) header in descending order
Start Az.
Max El. time (UTC)
Max El. Az.
Max El.
End time (UTC)
End Az.
4 mins2024-10-12 23:00:19.189Z58.369° ENE2024-10-12 23:02:19.189Z43.378° NE11.331°2024-10-12 23:04:19.189Z28.705° NE
14 mins2024-10-13 00:45:19.189Z136.873° SSE2024-10-13 00:51:19.189Z71.384° E39.059°2024-10-13 00:59:19.189Z352.255° N
11 mins2024-10-13 02:38:19.189Z214.436° SW2024-10-13 02:43:19.189Z267.176° W27.685°2024-10-13 02:49:19.189Z321.206° NNW
7 mins2024-10-13 12:40:19.189Z67.822° E2024-10-13 12:43:19.189Z91.179° ESE14.72°2024-10-13 12:47:19.189Z120.587° SE
15 mins2024-10-13 14:28:19.189Z19.053° NNE2024-10-13 14:35:19.189Z99.758° ESE44.664°2024-10-13 14:43:19.189Z193.866° SSW
10 mins2024-10-13 16:21:19.189Z343.521° N2024-10-13 16:25:19.189Z309.199° NW22.339°2024-10-13 16:31:19.189Z259.51° W